STARLINK-3124 (49456 NORAD) Tracking and Keplerian Element Data

This shows tracking and keplerian element data for the satellite.

Feedback or suggestion? Click here.




ElementValue
Catalog49456
NameSTARLINK-3124
Epoch Orbit371
Epoch Day339.91667824
Epoch Year2021
RAAN22.1985
Inclination53.2181
Eccentricity0.0001836
Argument of Perigee22.2844
Mean Anonmoly64.5231
Mean Motion15.73193724
Decay Rate0.00047461
L11 49456U 21104BA 21339.91667824 .00047461 00000+0 34075-3 0 9990
L22 49456 53.2181 22.1985 0001836 22.2844 64.5231 15.73193724 3711

Live tracking and technical data element details for STARLINK-3124 (NORAD 49456). STARLINK-3124 can be tracked NOW for your location showing map with azimuth and elevation plus other details from your city location.

Track the satellite on the map from your city or location and see movement details for azimuth, elevation, latitude, longitude, range, height, and movement on the map or in text.







IsCatalogInMostPopularTable: catalog: 49456, numindb: 1
Update: records affected: 1



GetName: 49456 STARLINK-3124

Hit Count: updated at: Wed, 08 Dec 2021 16:25:58 GMT